Regional Weather Roundup
Issued by NWS

Home | Current Version | Previous Version | Graphics & Text | Print | Product List | Glossary On
Versions: 1 2 3 4 5 6 7 8 9 10 11 12 13 14 15 16 17 18 19 20 21 22 23 24 25 26 27
000
ASUS45 KTFX 270610
RWRMT
MONTANA REGIONAL WEATHER ROUNDUP
NATIONAL WEATHER SERVICE GREAT FALLS MT
1200 AM MDT FRI MAY 27 2016

NOTE: "FAIR" INDICATES FEW OR NO CLOUDS BELOW 12000 FEET WITH NO
SIGNIFICANT WEATHER AND/OR OBSTRUCTIONS TO VISIBILITY.

MTZ001>007-043-270700-
WEST OF THE DIVIDE

CITY           SKY/WX    TMP DP  RH WIND       PRES   REMARKS
KALISPELL      MOCLDY    50  50 100 NW3       29.90F
MISSOULA       CLOUDY    50  48  93 W3        29.95F
BUTTE          CLOUDY    47  40  76 NW7       29.98F
MULLAN PASS    MOCLDY    40  38  93 VRB3      29.99F
ANACONDA         N/A     46  43  87 W3        29.98F
DEER LODGE       N/A     48  46  93 CALM      29.99S
EUREKA           N/A     54  45  71 SE3       29.90R
HAMILTON         N/A     57  39  51 CALM      29.94S
LIBBY            N/A     50  43  76 CALM      29.91S
$$

MTZ008-052>055-270700-
SOUTHWEST MONTANA

CITY           SKY/WX    TMP DP  RH WIND       PRES   REMARKS
BOZEMAN        CLOUDY    48  43  82 S7        29.95S
DILLON         CLOUDY    45  38  76 SE3       29.95S
W YELLOWSTONE  CLOUDY    37  37 100 NE5       30.03S
$$

MTZ009-010-012-014-046-048-049-054-270700-
EAST SLOPES AND CENTRAL MONTANA

CITY           SKY/WX    TMP DP  RH WIND       PRES   REMARKS
CUT BANK       CLEAR     47  44  90 CALM      29.89F
GREAT FALLS    PTCLDY    48  44  86 S10       29.91F
MALMSTROM AFB  MOCLDY    50  47  90 SW8       29.91S
HELENA         LGT RAIN  53  46  77 SE3       29.92F
CHOTEAU          N/A     48  46  93 S6        29.92R
$$

MTZ011-013-016-021-045-047-050-051-270700-
NORTH CENTRAL MONTANA

CITY           SKY/WX    TMP DP  RH WIND       PRES   REMARKS
HAVRE          CLOUDY    56  50  80 E5        29.90S
LEWISTOWN      CLEAR     46  41  82 E5        29.93F
N BAR RANCH      N/A     41  39  93 CALM      29.96S
CHINOOK          N/A     52  48  87 E3        29.91S
$$

MTZ017>020-022>027-061-062-270700-
NORTHEAST MONTANA

CITY           SKY/WX    TMP DP  RH WIND       PRES   REMARKS
GLASGOW        CLOUDY    53  49  86 NE7       29.87S
JORDAN           N/A     53  51  93 N9        29.86F
SIDNEY         MOCLDY    52  50  93 N5        29.86R
WOLF POINT     CLOUDY    55  50  83 NE8       29.87S
$$

MTZ028>42-056>058-270700-
SOUTHCENTRAL AND SOUTHEAST MONTANA

CITY           SKY/WX    TMP DP  RH WIND       PRES   REMARKS
BAKER          CLEAR     47  43  86 W3        29.87F
BILLINGS       CLEAR     53  44  71 SW3       29.92F
LIVINGSTON     CLOUDY    43  39  86 CALM      29.95S
MILES CITY     CLEAR     51  48  89 W6        29.86S
FORSYTH          N/A     54  48  82 W5        29.87S
$$

REGIONAL REPORTS...DAKOTAS

CITY           SKY/WX    TMP DP  RH WIND       PRES   REMARKS
WILLISTON      CLOUDY    53  49  86 N6        29.88R
MINOT          LGT RAIN  57  53  86 N10       29.83S
DICKINSON      CLOUDY    46  42  86 NW6       29.83F
BEACH            N/A     46  46 100 CALM      29.89S
CROSBY           N/A     46  46 100 SW5       29.91R
WATFORD CITY     N/A     45  45 100 NE3       29.86S
BISMARCK       PTCLDY    50  48  93 CALM      29.82S
GRAND FORKS    CLOUDY    56  53  90 W3        29.78S
FARGO          CLOUDY    60  56  86 N8        29.80R
BUFFALO SD       N/A     48  42  80 CALM      29.81F
RAPID CITY     CLEAR     50  43  77 N10       29.87S
$$

REGIONAL REPORTS...WYOMING/IDAHO/WASHINGTON

CITY           SKY/WX    TMP DP  RH WIND       PRES   REMARKS
GILLETTE       CLEAR     41  37  86 CALM      29.93R
SHERIDAN       MOCLDY    51  44  77 W9        29.92F
BUFFALO WY     PTCLDY    49  42  77 W6        29.95S
CODY           CLEAR     46  39  76 CALM      29.96S
YELLOWSTONE LA   N/A     31  30  96 CALM      30.09F
IDAHO FALLS    CLEAR     51  41  68 SW6       29.93F
SALMON         CLOUDY    57  39  51 NW3       29.91S
BOISE          PTCLDY    60  38  43 SE5       29.90S
SPOKANE        MOCLDY    55  37  50 S15       29.90F
$$

REGIONAL REPORTS...ALBERTA

CITY           SKY/WX    TMP DP  RH WIND       PRES   REMARKS
EDMONTON       LGT RAIN  54  48  82 S3        29.80S
CALGARY        MOCLDY    52  45  76 VRB2      29.80S
LETHBRIDGE     CLOUDY    54  45  71 SW12G17   29.82F
MEDICINE HAT   CLOUDY    59  50  72 S10       29.86R
WATERTON GATE    N/A     50  39  66 SW14G21     N/A
CARDSTON         N/A     48  39  71 S7          N/A
MILK RIVER       N/A     46  43  87 S5          N/A
ONEFOUR          N/A     50  46  87 SE8         N/A
$$

REGIONAL REPORTS...SASKATCHEWAN

CITY           SKY/WX    TMP DP  RH WIND       PRES   REMARKS
SWIFT CURRENT  CLEAR     50  46  87 S8        29.91S
REGINA         CLOUDY    55  52  88 W13       29.87F
SASKATOON      MOCLDY    59  50  72 W8        29.87S
CYPRESS HILLS    N/A     46  41  81 SE6         N/A
ROCKGLEN         N/A     50  48  93 N3          N/A
$$




USA.gov is the U.S. government's official web portal to all federal, state and local government web resources and services.